Starlink 5185

operational
NORAD ID: 54100 Int'l Des: 2022-136 Owner: SPXS Country: US Constellation: starlink
LEOCIRCULAR

Starlink 5185について

説明を読み込み中...

リアルタイム位置

3D地球を読み込み中...

次回通過

高度履歴

Altitude vs Time

uPlot chart will show altitude changes over time

軌道要素

1 54100U 22136BB 25355.09919625 -.00001832 00000-0 -97028-4 0 9991
2 54100 53.2179 326.6387 0002009 70.1183 290.0026 15.08843342175128
Epoch: Dec 21, 2025 • Age: 8 hours

現在のステータス

高度 559.6 km
速度 7.58 km/s
衛星直下点 -53.06°S, 12.21°W
打ち上げ日 Oct 20, 2022
運用期間 3.1 years
タイプ internet

技術仕様

分類 Payload
質量 305.00 kg
乾燥質量 290.00 kg
総質量 305.00 kg
長さ 0.20 m
直径 2.80 m
スパン 9.00 m
形状 Box + pan
製造者 SPXS
バスタイプ Starlink
フェーズステータス In Orbit
所有者/国 SPXS/US

大規模コンステレーション

Loading constellations...